Weather History for Shelton, WA

Change the Weather History Date:

Monday, October 7, 2013

  Actual Average Record
Temperature  
Mean Temperature 52 °F -  
Max Temperature 57 °F 64 °F 78 °F (1987)
Min Temperature 48 °F 44 °F 32 °F (1974)
Degree Days  
Heating Degree Days 14    
Growing Degree Days 2 (Base 50)    
Moisture  
Dew Point 49 °F    
Average Humidity 89    
Maximum Humidity 97    
Minimum Humidity 72    
Precipitation  
Precipitation 0.13 in - - ()
Sea Level Pressure  
Sea Level Pressure 29.95 in    
Wind  
Wind Speed 11 mph (SW)    
Max Wind Speed 18 mph    
Max Gust Speed 25 mph    
Visibility 9 miles    
Events Rain    
Averages and records for this station are not official NWS values.
T = Trace of Precipitation, MM = Missing Value Source: NWS Daily Summary

Daily Weather History Graph

Daily Weather History Graph

Search for Another Location

Airport:

Trip Planner

Search our weather history database for the weather conditions in past years. The results will help you decide how hot, cold, wet, or windy it might be!

Date:

Astronomy

Oct. 07, 2013 Rise Set
Actual Time 7:20 AM PDT 6:39 PM PDT
Civil Twilight 6:49 AM PDT 7:10 PM PDT
Nautical Twilight 6:14 AM PDT 7:45 PM PDT
Astronomical Twilight 5:38 AM PDT 8:21 PM PDT
Moon 10:29 AM PDT (10/7) 8:15 PM PDT (10/7)
Length of Visible Light 12h 20m
Length of Day
11h 19m
Waxing Crescent, 9% of the Moon is Illuminated
Oct 7
Waxing Crescent
Oct 11
First Quarter
Oct 18
Full
Oct 26
Last Quarter
Nov 3
New

Hourly Weather History & Observations

Time (PDT) Temp. Dew Point Humidity Pressure Visibility Wind Dir Wind Speed Gust Speed Precip Events Conditions
12:07 AM 53.6 °F 51.8 °F 94% 29.90 in 3.0 mi SSW 10.4 mph - 0.01 in Rain Light Rain
12:18 AM 53.6 °F 51.8 °F 94% 29.90 in 2.5 mi SSW 8.1 mph - 0.02 in Rain Light Rain
12:28 AM 53.6 °F 51.8 °F 94% 29.90 in 3.0 mi South 6.9 mph - 0.03 in Rain Light Rain
12:53 AM 54.0 °F 52.0 °F 93% 29.91 in 6.0 mi SW 5.8 mph - 0.04 in Rain Light Rain
1:10 AM 53.6 °F 51.8 °F 94% 29.90 in 6.0 mi SSW 9.2 mph - 0.01 in Rain Light Rain
1:18 AM 53.6 °F 51.8 °F 94% 29.90 in 10.0 mi SW 12.7 mph - 0.01 in   Overcast
1:42 AM 53.6 °F 51.8 °F 94% 29.90 in 10.0 mi SW 8.1 mph - 0.01 in   Overcast
1:53 AM 54.0 °F 52.0 °F 93% 29.91 in 10.0 mi SW 6.9 mph - 0.01 in   Overcast
2:08 AM 53.6 °F 51.8 °F 94% 29.90 in 10.0 mi SW 10.4 mph - N/A   Overcast
2:18 AM 53.6 °F 51.8 °F 94% 29.90 in 10.0 mi SW 9.2 mph - N/A   Overcast
2:53 AM 53.1 °F 51.1 °F 93% 29.89 in 10.0 mi WSW 9.2 mph - N/A   Mostly Cloudy
3:19 AM 53.6 °F 51.8 °F 94% 29.90 in 10.0 mi SW 9.2 mph - N/A   Mostly Cloudy
3:53 AM 52.0 °F 51.1 °F 97% 29.89 in 10.0 mi SW 8.1 mph - N/A   Overcast
4:34 AM 51.8 °F 50.0 °F 94% 29.89 in 10.0 mi SSW 5.8 mph - N/A   Overcast
4:53 AM 51.1 °F 48.9 °F 92% 29.89 in 10.0 mi SSW 6.9 mph - N/A   Mostly Cloudy
5:00 AM 51.8 °F 48.2 °F 88% 29.89 in 10.0 mi SSW 6.9 mph - N/A   Partly Cloudy
5:53 AM 51.1 °F 48.9 °F 92% 29.90 in 10.0 mi SSW 11.5 mph - N/A   Scattered Clouds
6:53 AM 51.1 °F 48.9 °F 92% 29.90 in 6.0 mi SW 12.7 mph - 0.01 in Rain Light Rain
7:49 AM 51.8 °F 48.2 °F 88% 29.90 in 10.0 mi SSW 9.2 mph - 0.00 in   Mostly Cloudy
7:53 AM 51.1 °F 48.9 °F 92% 29.91 in 10.0 mi SSW 10.4 mph - 0.00 in   Mostly Cloudy
8:01 AM 51.8 °F 48.2 °F 88% 29.91 in 10.0 mi SW 11.5 mph - N/A   Mostly Cloudy
8:53 AM 51.1 °F 50.0 °F 96% 29.94 in 8.0 mi SW 13.8 mph - 0.02 in Rain Light Rain
9:53 AM 52.0 °F 50.0 °F 93% 29.96 in 10.0 mi SW 17.3 mph 21.9 mph 0.00 in   Overcast
10:07 AM 51.8 °F 48.2 °F 88% 29.95 in 8.0 mi SW 15.0 mph - 0.00 in Rain Light Rain
10:25 AM 51.8 °F 50.0 °F 94% 29.95 in 10.0 mi SW 13.8 mph 21.9 mph 0.00 in   Mostly Cloudy
10:38 AM 53.6 °F 51.8 °F 94% 29.95 in 10.0 mi SW 16.1 mph 20.7 mph 0.00 in   Mostly Cloudy
10:53 AM 54.0 °F 50.0 °F 86% 29.97 in 10.0 mi SW 13.8 mph - 0.00 in   Partly Cloudy
11:53 AM 53.1 °F 48.9 °F 86% 29.98 in 10.0 mi SW 13.8 mph - 0.01 in Rain Light Rain
12:53 PM 55.9 °F 48.9 °F 77% 29.98 in 10.0 mi SW 16.1 mph 23.0 mph 0.00 in   Partly Cloudy
1:53 PM 53.1 °F 46.9 °F 80% 30.00 in 10.0 mi WSW 13.8 mph - 0.00 in Rain Light Rain
2:53 PM 55.9 °F 48.0 °F 75% 30.00 in 10.0 mi SW 15.0 mph - 0.00 in   Mostly Cloudy
3:53 PM 55.9 °F 46.9 °F 72% 30.01 in 10.0 mi West 10.4 mph 23.0 mph 0.00 in Rain Light Rain
4:35 PM 53.6 °F 48.2 °F 82% 30.01 in 6.0 mi WSW 12.7 mph - 0.01 in Rain Light Rain
4:42 PM 53.6 °F 48.2 °F 82% 30.01 in 8.0 mi WSW 10.4 mph - 0.01 in Rain Light Rain
4:53 PM 52.0 °F 48.9 °F 89% 30.02 in 4.0 mi WSW 12.7 mph 18.4 mph 0.02 in Rain Rain
4:55 PM 51.8 °F 48.2 °F 88% 30.01 in 2.5 mi WSW 11.5 mph - 0.00 in Rain Rain
5:01 PM 51.8 °F 48.2 °F 88% 30.01 in 3.0 mi WSW 15.0 mph - 0.02 in Rain Light Rain
5:53 PM 52.0 °F 48.0 °F 86% 30.01 in 10.0 mi SW 10.4 mph - 0.02 in   Mostly Cloudy
6:53 PM 52.0 °F 48.0 °F 86% 30.01 in 10.0 mi SSW 11.5 mph - N/A   Overcast
7:15 PM 51.8 °F 48.2 °F 88% 30.01 in 6.0 mi SW 9.2 mph - 0.00 in Rain Light Rain
7:45 PM 50.0 °F 48.2 °F 94% 30.00 in 10.0 mi SW 12.7 mph - 0.00 in   Mostly Cloudy
7:53 PM 50.0 °F 46.9 °F 89% 30.01 in 10.0 mi SW 13.8 mph - 0.00 in   Mostly Cloudy
8:53 PM 50.0 °F 46.9 °F 89% 30.01 in 10.0 mi SW 13.8 mph - N/A   Mostly Cloudy
9:08 PM 50.0 °F 46.4 °F 87% 30.00 in 10.0 mi SW 18.4 mph - N/A   Mostly Cloudy
9:18 PM 50.0 °F 46.4 °F 87% 30.00 in 10.0 mi SW 16.1 mph 25.3 mph N/A   Scattered Clouds
9:53 PM 50.0 °F 46.9 °F 89% 30.01 in 10.0 mi SW 12.7 mph - N/A   Clear
10:53 PM 48.9 °F 46.0 °F 90% 30.02 in 10.0 mi SW 10.4 mph - N/A   Clear
11:53 PM 50.0 °F 46.0 °F 86% 30.02 in 10.0 mi SW 11.5 mph - N/A   Partly Cloudy